Location: Firdgum
(53.2488°N, 5.5615°E)
Time: 01:29:56
(UTC+00:00)

MSX - Pass Details

Date: 08 December 2019
Orbit: 895 x 906 km, 98.8° (Epoch: 27 January)

Event Time Altitude Azimuth Distance (km) Brightness Sun altitude
Rises 03:52:28 0° 15° (NNE) 3,542 7.2 -32.4°
Reaches altitude 10° 03:54:53 10° 16° (NNE) 2,598 6.4 -32.0°
Enters shadow 03:58:55 47° 20° (NNE) 1,182 4.5 -31.4°
